[[{"header":{"parameterUnit":"m.s-1","parameterCategory":1,"la1":30.2991,"la2":30.254,"lo1":-89.0895,"lo2":-89.0444,"dy":0.0017,"dx":0.0017,"nx":28,"ny":28,"refTime":"2025-01-12T03:00:00:Z","depth":0,"parameterNumber":2,"parameterNumberName":"U-component_of_WINDS"},"data":[0,0,0,0,0,0,0,0,0,0,0,0,0,0,0,0,0,0,0,0,0,0,0,0,0,0,0,0,0,0,0,0,0,0,0,0,0,0,0,0,0,0,0,0,0,0,0,0,0,0,0,0,0,0,0,0,0,0,-1.8084,-1.8085,0,-1.8162,-1.8163,-1.8164,-1.813,-1.8128,-1.8126,-1.8124,-1.8207,-1.8211,-1.8215,0,0,0,0,0,0,0,0,0,0,0,0,0,-1.7908,-1.7911,-1.8084,-1.8085,-1.8086,-1.8162,-1.8163,-1.8164,-1.813,-1.8128,-1.8125,-1.8123,-1.8206,-1.821,-1.8215,0,0,0,0,0,0,0,0,0,0,0,0,0,-1.7985,-1.7912,-1.8084,-1.8078,-1.8078,-1.8162,-1.8163,-1.8164,-1.8131,-1.8128,-1.8125,-1.8122,-1.8204,-1.821,-1.8216,-1.831,0,0,-1.8234,-1.8237,0,0,0,0,0,0,0,0,-1.7981,-1.7992,-1.8078,-1.8079,-1.8079,-1.8133,-1.8131,-1.8213,-1.8131,-1.8111,-1.8124,-1.8121,-1.8185,-1.8192,-1.8213,-1.8314,-1.8317,-1.8234,-1.8238,-1.8241,-1.8242,0,0,0,0,0,0,0,-1.7975,-1.7988,-1.8115,-1.8079,-1.808,-1.8072,-1.808,-1.8147,-1.8163,-1.8112,-1.811,-1.812,-1.8185,-1.8208,-1.8215,-1.8319,-1.8234,-1.824,-1.8243,-1.8246,-1.8502,-1.8505,0,0,0,0,0,0,-1.797,-1.7984,-1.8112,-1.8117,-1.8022,-1.8078,-1.8087,-1.8119,-1.8162,-1.8166,-1.8122,-1.8118,-1.8199,-1.8208,-1.8218,-1.8332,-1.8241,-1.8246,-1.825,-1.8498,-1.8502,-1.8506,0,0,0,0,0,0,-1.7966,-1.7981,-1.8109,-1.805,-1.8066,-1.8084,-1.812,-1.8122,-1.8145,-1.8169,-1.8172,-1.8142,-1.8197,-1.8209,-1.8287,-1.8335,-1.8249,-1.8254,-1.8495,-1.85,-1.8504,-1.8561,0,0,0,0,0,0,-1.7961,-1.798,-1.8016,-1.8051,-1.8069,-1.8177,-1.8123,-1.8125,-1.8155,-1.815,-1.8189,-1.8193,-1.8196,-1.8279,-1.8293,-1.8341,-1.8259,-1.8491,-1.8497,-1.8503,-1.8555,-1.8567,-1.8578,0,0,0,0,0,-1.7955,-1.8029,-1.8018,-1.8034,-1.8114,-1.818,-1.819,-1.8191,-1.8159,-1.8195,-1.8211,-1.8192,-1.8326,-1.8287,-1.8303,-1.8354,-1.8488,-1.8495,-1.8502,-1.855,-1.8565,-1.8577,0,0,0,0,0,0,-1.8,-1.8034,-1.8022,-1.8109,-1.8142,-1.8174,-1.822,-1.8206,-1.8249,-1.8243,-1.8243,-1.8252,-1.8333,-1.8351,-1.8306,-1.8448,-1.8402,-1.8413,-1.8433,-1.8448,-1.8459,-1.8454,-1.8264,0,0,0,0,0,-1.802,-1.8071,-1.8097,-1.8172,-1.8189,-1.8202,-1.8231,-1.8228,-1.8262,-1.8276,-1.8298,-1.8332,-1.8382,-1.8416,-1.8463,-1.8557,-1.8566,-1.8599,-1.8611,-1.862,-1.863,-1.8682,-1.8698,-1.853,-1.8529,-1.8529,0,0,-1.8063,-1.8087,-1.8119,-1.8182,-1.8207,-1.826,-1.8214,-1.8272,-1.8311,-1.8285,-1.836,-1.8377,-1.8416,-1.8503,-1.8542,-1.852,-1.8678,-1.8629,-1.8636,-1.8641,-1.8691,-1.8707,-1.8721,-1.8534,-1.8534,-1.8533,0,0,-1.8167,-1.819,-1.8256,-1.8281,-1.8319,-1.8327,-1.8343,-1.8377,-1.8387,-1.8462,-1.8444,-1.8491,-1.8577,-1.8606,-1.8632,-1.8747,-1.8731,-1.8762,-1.8822,-1.8873,-1.8886,-1.8898,-1.894,-1.8955,-1.8771,-1.8772,-1.8772,0,-1.8216,-1.8294,-1.8291,-1.8351,-1.838,-1.8357,-1.8424,-1.8449,-1.8501,-1.8522,-1.8496,-1.8604,-1.8628,-1.8722,-1.875,-1.8771,-1.879,-1.8759,-1.8884,-1.8896,-1.8907,-1.8947,-1.8963,-1.8775,-1.8775,-1.8774,-1.8774,0,-1.8352,-1.8407,-1.8455,-1.8506,-1.8539,-1.8602,-1.861,-1.8644,-1.8638,-1.8649,-1.8727,-1.8755,-1.8808,-1.8829,-1.8824,-1.8923,-1.8908,-1.8883,-1.8838,-1.8926,-1.8965,-1.898,-1.878,-1.8779,-1.8778,-1.8777,0,0,-1.849,-1.8536,-1.8555,-1.8577,-1.8617,-1.866,-1.8722,-1.8773,-1.8804,-1.884,-1.8893,-1.8966,-1.8943,-1.8972,-1.897,-1.9015,-1.9106,-1.8984,-1.8985,-1.9008,-1.9217,-1.9237,-1.9255,-1.9095,-1.9098,-1.91,-1.9215,0,-1.8599,-1.8707,-1.8706,-1.8806,-1.8858,-1.8837,-1.8891,-1.8922,-1.8933,-1.8979,-1.8991,-1.9044,-1.9009,-1.9027,-1.9069,-1.9086,-1.9148,-1.9077,-1.9146,-1.9148,-1.9139,-1.9275,-1.9296,-1.9403,-1.9229,-1.9232,-1.9234,0,-1.8741,-1.8781,-1.8887,-1.892,-1.8941,-1.899,-1.9037,-1.908,-1.9115,-1.912,-1.9153,-1.9144,-1.9208,-1.9159,-1.9248,-1.92,-1.9228,-1.924,-1.9244,-1.9252,-1.9198,-1.9289,-1.9437,-1.9454,-1.9257,-1.9255,-1.9253,0,-1.8833,-1.8913,-1.8987,-1.9007,-1.9047,-1.9082,-1.91,-1.9132,-1.9163,-1.9204,-1.9224,-1.9272,-1.9299,-1.9337,-1.9341,-1.9305,-1.9432,-1.9383,-1.9439,-1.9439,-1.9469,-1.9467,-1.9626,-1.9483,-1.9483,-1.9483,-1.9482,0,-1.8956,-1.9022,-1.9029,-1.9075,-1.9148,-1.9146,-1.9219,-1.9234,-1.9263,-1.9312,-1.9296,-1.9342,-1.9344,-1.9392,-1.9396,-1.947,-1.9482,-1.9489,-1.949,-1.9492,-1.9491,-1.9512,-1.9505,-1.9487,-1.9486,-1.9485,-1.9484,0,-1.9072,-1.9079,-1.9158,-1.9189,-1.9198,-1.9251,-1.9278,-1.9322,-1.9331,-1.9393,-1.9408,-1.9423,-1.9479,-1.9486,-1.9551,-1.9554,-1.9644,-1.9635,-1.9632,-1.9632,-1.9688,-1.9683,-1.9867,-1.9892,-1.9731,-1.9733,-1.9734,0,-1.9151,-1.9201,-1.9237,-1.9268,-1.9288,-1.9339,-1.937,-1.937,-1.9403,-1.9446,-1.9486,-1.9539,-1.9582,-1.9672,-1.969,-1.9739,-1.9734,-1.9794,-1.9741,-1.9742,-1.9737,-1.9735,-1.974,-1.9805,-1.9807,-1.9809,-1.981,0,-1.9291,-1.9292,-1.9337,-1.9384,-1.9422,-1.9459,-1.9494,-1.952,-1.9525,-1.9563,-1.9619,-1.9652,-1.9718,-1.9773,-1.9822,-1.9841,-1.9828,-1.9826,-1.9842,-1.9846,-1.9842,-1.9847,-1.9662,-1.9822,-1.9821,-1.982,-1.982,-1.9819,-1.9393,-1.9437,-1.9469,-1.952,-1.9546,-1.9579,-1.9622,-1.9636,-1.9683,-1.9736,-1.9733,-1.9795,-1.9829,-1.9893,-1.9916,-1.9965,-1.9946,-1.9968,-1.9975,-1.9981,-1.9987,-1.9833,-1.9974,-1.9974,-1.9973,-1.9973,-1.9973,0,-1.9534,-1.9553,-1.96,-1.9649,-1.969,-1.967,-1.9708,-1.9744,-1.9798,-1.983,-1.9873,-1.9938,-1.999,-2.0011,-2.0062,-2.0098,-2.0093,-2.0112,-2.011,-2.0115,-2.0001,-1.9983,-2.0115,-2.0115,-2.0115,-2.0115,-2.0115,-2.0115,-1.9612,-1.9686,-1.9691,-1.9778,-1.9796,-1.9857,-1.988,-1.9911,-1.9936,-2.0009,-2.0052,-2.0065,-2.0093,-2.0146,-2.0194,-2.0199,-2.0219,-2.0241,-2.0244,-2.0137,-2.0123,-2.011,-2.0093,-2.0245,-2.0246,-2.0354,-2.0355,-2.0356]},{"header":{"parameterUnit":"m.s-1","parameterCategory":1,"la1":30.2991,"la2":30.254,"lo1":-89.0895,"lo2":-89.0444,"dy":0.0017,"dx":0.0017,"nx":28,"ny":28,"refTime":"2025-01-12T03:00:00:Z","depth":0,"parameterNumber":3,"parameterNumberName":"V-component_of_WINDS"},"data":[0,0,0,0,0,0,0,0,0,0,0,0,0,0,0,0,0,0,0,0,0,0,0,0,0,0,0,0,0,0,0,0,0,0,0,0,0,0,0,0,0,0,0,0,0,0,0,0,0,0,0,0,0,0,0,0,0,0,-6.8205,-6.8205,0,-6.8248,-6.8248,-6.8249,-6.8149,-6.8146,-6.8143,-6.814,-6.8181,-6.8184,-6.8188,0,0,0,0,0,0,0,0,0,0,0,0,0,-6.8033,-6.8036,-6.8205,-6.8205,-6.8206,-6.8248,-6.8248,-6.8249,-6.815,-6.8146,-6.8142,-6.8139,-6.8179,-6.8184,-6.8189,0,0,0,0,0,0,0,0,0,0,0,0,0,-6.8095,-6.8038,-6.8204,-6.8161,-6.8158,-6.8247,-6.8248,-6.8249,-6.8151,-6.8146,-6.8141,-6.8137,-6.8178,-6.8183,-6.8189,-6.8322,0,0,-6.8208,-6.821,0,0,0,0,0,0,0,0,-6.8091,-6.8101,-6.8167,-6.8165,-6.8161,-6.8188,-6.8202,-6.8273,-6.8152,-6.8153,-6.814,-6.8134,-6.8187,-6.8192,-6.821,-6.8323,-6.8325,-6.8208,-6.8212,-6.8215,-6.8216,0,0,0,0,0,0,0,-6.8087,-6.8099,-6.8221,-6.8168,-6.8164,-6.8139,-6.8142,-6.8215,-6.8196,-6.8153,-6.8146,-6.8152,-6.8184,-6.8205,-6.821,-6.8326,-6.8208,-6.8214,-6.8217,-6.822,-6.855,-6.8554,0,0,0,0,0,0,-6.8089,-6.8096,-6.822,-6.8223,-6.8114,-6.8146,-6.815,-6.8184,-6.8195,-6.8192,-6.8156,-6.8148,-6.8196,-6.8203,-6.8211,-6.8367,-6.8215,-6.822,-6.8224,-6.8544,-6.8551,-6.8556,0,0,0,0,0,0,-6.8086,-6.8101,-6.8218,-6.8157,-6.817,-6.8154,-6.8193,-6.8188,-6.8208,-6.8198,-6.8193,-6.8181,-6.8193,-6.8203,-6.8295,-6.8367,-6.8223,-6.8228,-6.8538,-6.8546,-6.8553,-6.8679,0,0,0,0,0,0,-6.8081,-6.81,-6.8151,-6.8159,-6.8174,-6.8303,-6.8198,-6.8192,-6.8219,-6.8208,-6.822,-6.8217,-6.819,-6.8287,-6.8301,-6.8373,-6.8233,-6.8532,-6.8542,-6.8551,-6.8669,-6.869,-6.8709,0,0,0,0,0,-6.8075,-6.8184,-6.8154,-6.817,-6.8238,-6.8307,-6.8316,-6.8283,-6.8225,-6.8276,-6.8269,-6.8217,-6.8357,-6.8297,-6.8312,-6.8387,-6.8527,-6.8539,-6.855,-6.866,-6.8686,-6.8708,0,0,0,0,0,0,-6.8183,-6.8184,-6.8151,-6.8266,-6.8288,-6.829,-6.8353,-6.8312,-6.835,-6.8337,-6.8295,-6.8298,-6.8399,-6.8401,-6.8335,-6.8515,-6.8432,-6.8447,-6.851,-6.8535,-6.8555,-6.8552,-6.8238,0,0,0,0,0,-6.8221,-6.8279,-6.8276,-6.8377,-6.839,-6.837,-6.8399,-6.8373,-6.8392,-6.8401,-6.84,-6.8421,-6.8469,-6.8502,-6.8546,-6.8668,-6.8669,-6.8727,-6.8747,-6.8764,-6.8778,-6.8843,-6.8868,-6.8594,-6.8594,-6.8594,0,0,-6.8298,-6.8306,-6.8345,-6.8399,-6.8413,-6.8473,-6.8378,-6.8445,-6.8489,-6.841,-6.8498,-6.8499,-6.8518,-6.8627,-6.8674,-6.8632,-6.8853,-6.8779,-6.8792,-6.8797,-6.8857,-6.8883,-6.8906,-6.8602,-6.8601,-6.8599,0,0,-6.847,-6.8482,-6.8569,-6.8584,-6.8606,-6.8592,-6.8613,-6.8623,-6.862,-6.8708,-6.865,-6.8701,-6.8785,-6.8802,-6.8821,-6.9,-6.8953,-6.9015,-6.9121,-6.9185,-6.9206,-6.9225,-6.9289,-6.9313,-6.9029,-6.9029,-6.903,0,-6.8564,-6.8653,-6.8618,-6.8689,-6.8715,-6.8648,-6.8734,-6.875,-6.8785,-6.8804,-6.8757,-6.8862,-6.887,-6.8981,-6.9025,-6.9043,-6.9065,-6.9014,-6.9206,-6.9225,-6.9242,-6.9302,-6.9327,-6.9037,-6.9036,-6.9035,-6.9034,0,-6.8767,-6.8829,-6.8896,-6.8933,-6.8966,-6.9045,-6.902,-6.9057,-6.9028,-6.9019,-6.9109,-6.9117,-6.9161,-6.9185,-6.9157,-6.9293,-6.9266,-6.9214,-6.9129,-6.9276,-6.9332,-6.9355,-6.9047,-6.9045,-6.9043,-6.9041,0,0,-6.9008,-6.9025,-6.905,-6.9067,-6.9086,-6.9133,-6.9208,-6.9253,-6.9286,-6.9312,-6.9374,-6.9447,-6.9399,-6.9421,-6.9393,-6.945,-6.9591,-6.9389,-6.9389,-6.9427,-6.9741,-6.9781,-6.9809,-6.956,-6.9564,-6.9568,-6.974,0,-6.9178,-6.931,-6.928,-6.9409,-6.9466,-6.9403,-6.9469,-6.9487,-6.9481,-6.9527,-6.9519,-6.9572,-6.9504,-6.9517,-6.9569,-6.9563,-6.9654,-6.955,-6.9616,-6.9619,-6.9614,-6.9838,-6.9881,-7.0043,-6.9761,-6.9765,-6.9768,0,-6.9395,-6.9431,-6.9567,-6.9577,-6.96,-6.966,-6.9699,-6.9744,-6.9764,-6.9755,-6.978,-6.9742,-6.9815,-6.973,-6.983,-6.9761,-6.9786,-6.9787,-6.9792,-6.9797,-6.9703,-6.985,-7.0094,-7.0118,-6.9802,-6.9799,-6.9797,0,-6.9558,-6.9641,-6.9732,-6.9748,-6.9763,-6.9806,-6.9814,-6.9829,-6.9858,-6.9891,-6.9909,-6.995,-6.9973,-7.0005,-6.9979,-6.9919,-7.0083,-6.9996,-7.0077,-7.0078,-7.0115,-7.0113,-7.0367,-7.0131,-7.0131,-7.013,-7.013,0,-6.9752,-6.9837,-6.9806,-6.9862,-6.9956,-6.992,-7.0013,-7.0013,-7.0027,-7.0082,-7.0029,-7.0081,-7.0042,-7.0091,-7.007,-7.0156,-7.0167,-7.0161,-7.0155,-7.0166,-7.0167,-7.0182,-7.017,-7.0137,-7.0135,-7.0134,-7.0133,0,-6.995,-6.9933,-7.0029,-7.0035,-7.0039,-7.0107,-7.0112,-7.0164,-7.0153,-7.0223,-7.0237,-7.0221,-7.0275,-7.0251,-7.0308,-7.0294,-7.0405,-7.0383,-7.0399,-7.0394,-7.0477,-7.047,-7.075,-7.0785,-7.0526,-7.0529,-7.0531,0,-7.0075,-7.014,-7.0154,-7.0187,-7.0199,-7.0254,-7.0283,-7.0251,-7.0284,-7.0311,-7.0359,-7.0409,-7.0448,-7.0537,-7.0529,-7.0572,-7.0551,-7.0646,-7.0557,-7.0567,-7.0553,-7.055,-7.0556,-7.0664,-7.0668,-7.067,-7.0672,0,-7.03,-7.0288,-7.0334,-7.0377,-7.0414,-7.0446,-7.0473,-7.0503,-7.0472,-7.0511,-7.0567,-7.0597,-7.0655,-7.0705,-7.0744,-7.075,-7.0706,-7.07,-7.0721,-7.0734,-7.0741,-7.0739,-7.0448,-7.0694,-7.0692,-7.069,-7.0689,-7.0688,-7.0465,-7.052,-7.0538,-7.0591,-7.0608,-7.0635,-7.0685,-7.0681,-7.0727,-7.0773,-7.0751,-7.0815,-7.0832,-7.0879,-7.0892,-7.0941,-7.0903,-7.0934,-7.0942,-7.095,-7.0961,-7.0733,-7.0947,-7.0947,-7.0946,-7.0946,-7.0945,0,-7.0687,-7.0696,-7.0745,-7.0786,-7.0827,-7.0783,-7.0811,-7.0848,-7.0906,-7.0927,-7.0966,-7.103,-7.1078,-7.1074,-7.1119,-7.1159,-7.114,-7.1172,-7.1168,-7.1171,-7.0992,-7.097,-7.1186,-7.1186,-7.1186,-7.1186,-7.1186,-7.1186,-7.0807,-7.0897,-7.0888,-7.0986,-7.0993,-7.1058,-7.1078,-7.1102,-7.1118,-7.1192,-7.1233,-7.123,-7.1241,-7.1285,-7.1327,-7.1325,-7.1344,-7.1383,-7.1374,-7.1207,-7.1183,-7.116,-7.1139,-7.1388,-7.1388,-7.1548,-7.1549,-7.155]}]]